星链-6049 (STARLINK-6049 )

导读 | 星芒AI

STARLINK-6049 是 SpaceX Starlink 卫星互联网项目中的一颗低轨卫星,属于第60组发射任务部署的卫星之一。该卫星运行在约550公里高度的近地轨道,旨在为全球用户提供高速、低延迟的宽带互联网服务。Starlink 项目通过大规模部署卫星,致力于改善偏远和网络基础设施薄弱地区的网络接入。STARLINK-6049 采用先进推进和通信技术,支持自动避碰功能,以确保太空安全。该项目仍在持续扩展,以实现全球覆盖目标。

基本信息
目录编号:
56796
目录名称:
STARLINK-6049
国际标识:
2023-078AF
轨道中心:
EARTH
卫星名称:
星链-6049
卫星全名:
星链-6049 (STARLINK-6049 )
卫星状态:
在轨 (已飞行935 天)
发射日期:
2023-05-31 UTC
国别 :
美国 (US)
星等 :
--
轨道信息
数据来源 国际轨道数据 AOE轨道数据
星历时间 2025-12-21T05:15:19+0800
20小时前
查看轨道信息
2025-12-15T18:00:00+0800
6天前
查看轨道信息
半长轴 6950.236km 6950.178km
偏心率 0.0002874 0.0003051
轨道倾角 69.999° 69.996°
近地点辐角 271.491° 280.424°
升交点赤经 183.247° 197.034°
平近点角 88.592° 108.544°
近地点 570.101km 569.922km
远地点 574.097km 574.164km
周期 96.108分钟 96.107分钟
每日圈数 14.983161 14.983351
详细信息
固有亮度:
5
最大亮度:
2.5
卫星平台:
Starlink v1.5
覆盖范围:
全球
运营商:
太空探索技术公司
运营商所在国:
美国
制造商(研发单位):
太空探索技术公司
制造商所在国:
美国
使用方式:
暂无
卫星简介
星链(Starlink)计划是由太空探索技术公司(SpaceX)提出的一个巨型低轨卫星互联网星座项目,计划在2019年至2024年间在太空搭建由约1.2万颗卫星组成的“星链”网络,其中1584颗将部署在地球上空550千米处的近地轨道,并从2020年开始工作。该卫星仍在工作。
2D轨道图
3D轨道图
轨道高度分析图
轨道倾角分析图
轨道综合分析图
查看轨道综合分析图